Terug naar catalogus

XINZHENGCHENG 02

ActiefMilitairPO
NORAD 68412·PAYLOAD·🇨🇳 China

Gelanceerd Mar 30, 2026 vanaf Jiuquan Satellite Launch Center

Loading…

Volgende Passages (komende 24 uur)

TLE

VersSource: Space-Track

Epoch: Sep 13, 2026, 20:03 UTC

1 68412U 26066A   26256.83575323  .00000410  00000-0  40818-4 0  9998
2 68412  84.9709 171.3647 0023710 307.3035  52.6027 14.88481931 24918

Volg XINZHENGCHENG 02 in realtime met AllMySat

Download on the App Store